Zurück zum Katalog

FREGAT DEB

LostUNKNOWN
NORAD 45925·DEBRIS·🇷🇺 Russia

Gestartet Jul 18, 2011 von Baikonur Cosmodrome

Loading…

Nächste Überflüge (nächste 24 Stunden)

TLE

VeraltetSource: Space-Track

Epoche: Sep 1, 2020, 22:30 UTC

1 45925U 11037EP  20245.93805878 -.00049861  00000-0 -22530+0 0  9999
2 45925  51.2249 131.9565 0893420 242.3734 108.3648 11.90468465  6494

Verfolge FREGAT DEB in Echtzeit mit AllMySat

Download on the App Store